Regional Weather Roundup
Issued by NWS

Home | Current Version | Previous Version | Graphics & Text | Print | Product List | Glossary On
Versions: 1 2 3 4 5 6 7 8 9 10 11 12 13 14 15 16 17 18 19 20 21 22 23 24 25 26 27 28 29 30 31 32 33 34 35 36 37 38 39 40 41 42 43 44 45 46 47 48 49 50
000
ASUS43 KDTX 252001
RWRMI
MICHIGAN HOURLY REGIONAL WEATHER ROUNDUP
NATIONAL WEATHER SERVICE DETROIT/PONTIAC MI
400 PM EDT WED MAY 25 2016

NOTE: "FAIR" INDICATES FEW OR NO CLOUDS BELOW 12,000 FEET WITH NO
SIGNIFICANT WEATHER AND/OR OBSTRUCTION TO VISIBILITY.

MIZ047>049-052>055-059>063-066>070-074>076-081>083-252100-
SOUTHEAST LOWER MICHIGAN

CITY           SKY/WX    TMP DP  RH WIND       PRES   REMARKS
ADRIAN         PTSUNNY   82  57  42 SW15      30.05F
ALMA           SUNNY     85  55  36 S8G21     29.99F
ANN ARBOR      MOSUNNY   83  60  45 SW15G21   30.03F
BAD AXE        MOSUNNY   78  58  49 E6        30.04S
CARO           MOSUNNY   86  58  38 SW7       30.00F
DETROIT CITY   SUNNY     84  57  39 S15G23    30.03F
DETROIT        PTSUNNY   85  60  42 S16G25    30.04F
FLINT          MOSUNNY   88  56  33 SW8       30.01F
GROSSE ILE     MOSUNNY   77  61  57 S12       30.04F
HILLSDALE      MOSUNNY   82  49  32 SW10      30.04F
HOWELL         MOSUNNY   84  56  38 SW12      30.03F

CITY           SKY/WX    TMP DP  RH WIND       PRES   REMARKS
JACKSON        CLOUDY    82  58  43 S9        30.03F
LAMBERTVILLE   PTSUNNY   82  57  41 S9G17     30.06F
LANSING        MOSUNNY   82  60  47 SW12      30.01F
LAPEER         FAIR      89  47  24 SW5       30.02F
MASON          MOSUNNY   83  58  42 SW6       30.01F
MONROE         PTSUNNY   82  62  49 S16G22    30.04F
PONTIAC        MOSUNNY   84  58  40 S16G23    30.02F
PORT HOPE        N/A     57  52  83 E7        30.05R
PORT HURON     SUNNY     84  57  39 SW6       30.03S
TRI CITIES     MOSUNNY   88  56  33 S12       29.99F
MIDLAND        PTSUNNY   81  60  48 NE12      29.99S
TROY           MOSUNNY   86  55  34 S12       30.04F
SAGINAW HB     MOSUNNY   86  52  30 S7        29.99F
$$
MIZ043>046-050>051-056>058-064>065-071>073-077>080-252100-
SOUTHWEST LOWER MICHIGAN

CITY           SKY/WX    TMP DP  RH WIND       PRES   REMARKS
BATTLE CREEK   MOSUNNY   83  59  44 S13       30.01F
BENTON HARBOR  PTSUNNY   84  64  50 VRB6      29.96F
BIG RAPIDS     CLOUDY    84  57  39 SW8       29.97F
COLDWATER      CLOUDY    82  60  47 S8        30.01F
FREMONT        FAIR      83  59  43 SW12      29.98F
HOLLAND        CLOUDY    82  63  52 VRB6      29.98F
GRAND RAPIDS   PTSUNNY   87  59  38 S9        29.98F
IONIA          FAIR      86  54  33 SE6       29.98F
KALAMAZOO      MOSUNNY   85  59  41 S8        29.99F
LUDINGTON      PTSUNNY   69  59  72 SW6       30.00F
MARSHALL       MOSUNNY   84  60  43 SW9       30.00F
MOUNT PLEASANT SUNNY     86  57  37 SW8       29.97F
MUSKEGON       PTSUNNY   81  63  54 W8        29.98F
SOUTH HAVEN    MOSUNNY   84  63  49 W6        29.97F
$$
MIZ016>042-252100-
NORTHERN LOWER MICHIGAN

CITY           SKY/WX    TMP DP  RH WIND       PRES   REMARKS
ALPENA         MOSUNNY   71  55  56 SE13      30.05S
BEAVER ISLAND  MOSUNNY   64  57  77 NE12      30.05F
BELLAIRE       SUNNY     82  55  39 N6        29.98F
CADILLAC       HVY RAIN  68  59  74 W9        30.02R
CHARLEVOIX     SUNNY     72  60  65 E10       30.04F
FRANKFORT      CLOUDY    80  60  50 NW5       29.97F
GAYLORD        MOSUNNY   79  60  52 NE7       30.02F
GRAYLING       SUNNY     86  50  28 CALM      30.00F
HARBOR SPRINGS SUNNY     71  60  67 E9        30.04S
HOUGHTON LAKE  MOSUNNY   82  53  36 W6        30.00F
MANISTEE       CLOUDY    73  57  56 W5        30.00S
OSCODA         MOSUNNY   66  54  66 E12       30.05F
PELLSTON       MOSUNNY   70  58  65 E6        30.05F
ROGERS CITY    MOSUNNY   60  54  79 NE5       30.07F
TRAVERSE CITY  PTSUNNY   65  56  72 N8        29.99F
$$
MIZ007>008-015-252100-
EASTERN UPPER MICHIGAN

CITY           SKY/WX    TMP DP  RH WIND       PRES   REMARKS
KINROSS          N/A     72  55  56 E9        30.05F
MACKINAC ISLAN MOSUNNY   65  55  69 E6        30.06S
NEWBERRY       MOSUNNY   69  58  68 E3        30.04F
S. S. MARIE    MOSUNNY   73  54  51 VRB3      30.04F
MUNISING         N/A     49  45  86 N7        30.07F
$$
MIZ004>006-011>014-085-252100-
CENTRAL UPPER MICHIGAN

CITY           SKY/WX    TMP DP  RH WIND       PRES   REMARKS
MANISTIQUE     MOSUNNY   64  59  82 SE8       30.05S
ESCANABA       MOSUNNY   64  57  77 SE10      30.03F
MENOMINEE      CLOUDY    61  55  82 E16       30.02F
SAWYER-GWINN   CLOUDY    59  52  77 E6        30.06F
$$
MIZ001>003-009>011-084-252100-
WESTERN UPPER MICHIGAN

CITY           SKY/WX    TMP DP  RH WIND       PRES   REMARKS
IRON MOUNTAIN  SUNNY     72  57  59 E8        30.00F
HOUGHTON       PTSUNNY   51  45  79 E17G23    30.04F
COPPER HARBOR    N/A     59  48  67 SE6       30.05F
IRONWOOD       CLOUDY    75  54  46 SE9       29.90F
$$

ABBREVIATIONS USED IN REMARKS
   TC - TEMPERATURE IN CELSIUS
  WCI - WIND CHILL INDEX
   HX - HEAT INDEX
  VSB - VISIBILITY





USA.gov is the U.S. government's official web portal to all federal, state and local government web resources and services.